Weather observations for the past three days for
Fort Lewis / Gray U. S. Army Airfield
Imperial (Metric)
Date Time (pdt) Wind (mph) Vis. (mi.) Weather Sky Cond. Temperature (ºF) Relative Humidity Wind Chill (°F) Heat Index (°F) Pressure Precipitation (in)
Air Dwpt 6 hour altimeter (in) sea level (mb) 1 hr 3 hr 6 hr
Max. Min.
18 11:55 Calm 10.00 Fair CLR 74.3 55.6 52% 30.06 1018.2
18 10:55 S 6 10.00 Fair CLR 70.3 54.9 70.3 53.8 58% 30.06 1018.2
18 09:55 S 6 10.00 Fair CLR 67.8 55.2 64% 30.07 1018.5
18 08:55 S 6 10.00 Fair CLR 62.6 53.1 71% 30.08 1018.9
18 07:55 SW 6 10.00 Fair CLR 59.5 52.3 77% 30.07 1018.5
18 06:55 SW 5 10.00 Fair CLR 57.7 52 81% 30.07 1018.5
18 05:55 W 3 10.00 Fair CLR 56.3 51.4 84% 30.06 1018.1
18 04:55 Calm 10.00 Fair CLR 55 50 63.9 55 83% 30.06 1018.2
18 03:55 S 6 10.00 Fair CLR 57.7 50.9 78% 30.04 1017.5
18 02:55 SW 5 10.00 Fair CLR 58.8 52 78% 30.04 1017.5
18 00:55 S 5 10.00 Fair CLR 61.7 53.6 75% 30.04 1017.5
17 23:55 W 3 10.00 Fair CLR 61.7 55 79% 30.04 1017.5
17 22:55 W 5 10.00 Fair CLR 63.5 55.4 82.4 63.5 75% 30.02 1016.8
17 21:55 W 6 10.00 Fair CLR 64.9 56.1 73% 30.01 1016.5
17 20:55 W 9 10.00 Fair CLR 68.9 57.4 67% 30 1016.1
17 19:55 W 9 10.00 Fair CLR 73.2 57.6 58% 29.97 1015.1
17 18:55 W 12 10.00 Fair CLR 77.2 58.1 52% 79 29.96 1014.8
17 17:55 W 12 10.00 A Few Clouds FEW170 81.5 59.4 47% 82 29.96 1014.7
17 16:55 SW 9 10.00 Mostly Cloudy BKN160 81.1 59 84.2 72.1 47% 82 29.96 1014.7
17 15:55 W 10 10.00 Fair CLR 82.2 59.4 46% 82 29.97 1015.1
17 15:05 W 10 10.00 Partly Cloudy SCT150 82.6 59 45% 83 29.96 1014.7
17 14:55 W 8 10.00 A Few Clouds FEW160 FEW210 82.2 59.4 46% 82 29.97 1015.1
17 13:55 W 6 10.00 Partly Cloudy FEW150 FEW170 SCT210 77.9 58.8 52% 79 29.97 1015.1
17 12:55 W 8 10.00 Partly Cloudy FEW140 FEW170 SCT200 75.9 58.1 54% 78 29.97 1015.1
17 11:55 W 9 10.00 Partly Cloudy SCT250 73.4 57.7 58% 29.97 1015.1
17 10:55 SW 9 10.00 A Few Clouds FEW150 73.2 57.6 73.2 61.9 58% 29.96 1014.7
17 09:55 SW 7 10.00 Partly Cloudy SCT150 69.1 56.8 65% 29.97 1015.1
17 07:55 Calm 10.00 Overcast BKN160 OVC190 63 54.5 74% 29.96 1014.7
17 06:55 W 7 10.00 Mostly Cloudy BKN150 62.4 55 77% 29.93 1013.7
17 05:55 NW 5 10.00 Mostly Cloudy FEW170 BKN220 62.2 54.9 77% 29.94 1014.0
17 04:55 W 6 10.00 Mostly Cloudy BKN180 66.6 57.6 74.8 63.3 73% 29.94 1014.0
17 03:55 W 7 10.00 Overcast OVC170 67.5 57.4 70% 29.92 1013.3
17 02:55 Calm 10.00 Partly Cloudy SCT180 66.6 55.2 67% 29.9 1012.7
17 01:55 SE 8 10.00 A Few Clouds FEW190 64.2 54.7 71% 29.91 1013.0
17 00:55 Calm 10.00 Light Rain FEW190 70.3 55.2 59% 29.88 1012.0
16 23:55 Calm 10.00 Fair CLR 70.9 55.8 59% 29.88 1012.0
16 21:55 E 3 10.00 Fair CLR 78.4 54.7 44% 79 29.87 1011.6
16 20:55 N 5 10.00 Fair CLR 83.3 53.6 36% 82 29.87 1011.6
16 19:55 N 8 10.00 Fair CLR 86.7 52.3 31% 85 29.86 1011.3
16 18:55 N 8 10.00 Fair CLR 88.5 53.1 30% 86 29.87 1011.7
16 17:55 NW 7 10.00 Fair CLR 89.2 51.8 28% 87 29.88 1012.0
16 16:55 N 5 10.00 Fair CLR 89.4 52 90.1 78.6 28% 87 29.9 1012.7
16 15:55 NW 7 10.00 Fair CLR 89.4 52.9 29% 87 29.91 1013.0
16 14:55 NW 10 10.00 Fair CLR 87.4 53.1 31% 85 29.93 1013.7
16 13:55 NW 12 10.00 Fair CLR 86.4 53.1 32% 84 29.95 1014.4
16 12:55 NW 8 10.00 Fair CLR 83.8 53.2 35% 82 29.96 1014.7
16 11:55 NW 7 10.00 Fair CLR 82.2 54.7 39% 82 29.98 1015.4
16 10:55 Calm 10.00 Fair CLR 79 55.2 79 53.8 44% 80 29.98 1015.4
16 09:55 Calm 10.00 Fair CLR 74.5 56.1 53% 30 1016.1
16 08:55 Calm 10.00 Fair CLR 69.8 58.3 67% 30 1016.1
16 07:55 Calm 10.00 Fair CLR 64.4 57.4 78% 30 1016.1
16 06:55 Calm 10.00 Fair CLR 58.6 54.5 86% 30 1016.1
16 05:55 SE 3 10.00 Fair CLR 54.1 52.2 93% 30 1016.2
16 04:55 SE 6 10.00 Fair CLR 54.3 52 70 53.6 92% 30 1016.2
16 03:55 SE 3 10.00 Fair CLR 56.1 53.2 90% 30 1016.2
16 02:55 SE 3 10.00 Fair CLR 58.1 53.6 85% 30 1016.1
16 01:55 SW 3 10.00 Fair CLR 63.7 57.4 80% 29.99 1015.8
16 00:55 W 3 10.00 Fair CLR 65.1 57.7 77% 30 1016.1
15 23:55 W 5 10.00 Fair CLR 68.2 58.5 71% 30 1016.1
15 22:55 W 5 10.00 Fair CLR 69.8 57.6 81 69.6 65% 30 1016.2
15 21:55 NW 5 10.00 Fair CLR 71.4 55.4 57% 30.01 1016.5
15 20:55 NW 3 10.00 Fair CLR 75.2 54.1 48% 78 30 1016.1
15 19:55 NW 5 10.00 Fair CLR 79.2 54.1 42% 80 30 1016.1
15 18:55 NW 6 10.00 Fair CLR 80.1 52.9 39% 80 30.01 1016.5
15 17:55 W 8 10.00 Fair CLR 80.1 52.2 38% 80 30.03 1017.1
15 16:55 Calm 10.00 Fair CLR 80.2 54.3 81 62.1 41% 80 30.05 1017.8
15 15:55 W 6 10.00 Fair CLR 77.2 55.4 47% 79 30.07 1018.5
15 14:55 W 5 10.00 Fair CLR 75.2 55.2 50% 78 30.08 1018.9
15 13:55 W 3 10.00 Fair CLR 73.6 54.9 52% 30.09 1019.2
15 12:55 N 6 10.00 Fair CLR 70.5 54.5 57% 30.11 1019.9
Date Time (pdt) Wind (mph) Vis. (mi.) Weather Sky Cond. Air Dwpt Max. Min. Relative Humidity Wind Chill (°F) Heat Index (°F) altimeter (in) sea level (mb) 1 hr 3 hr 6 hr
6 hour
Temperature (ºF) Pressure Precipitation (in)